Location: Beneden-Haastrecht
(52.0012°N, 4.7557°E)
Time: 12:09:56
(UTC+00:00)

USA 305 - Pass Details

Date: 24 October 2020
Orbit: 569 x 577 km, 54.0° (Epoch: 22 November)

Event Time Altitude Azimuth Distance (km) Brightness Sun altitude
Rises 19:17:32 0° 290° (WNW) 2,787 7.7 -26.7°
Reaches altitude 10° 19:19:49 10° 287° (WNW) 1,885 6.5 -27.0°
Enters shadow 19:22:59 45° 265° (W) 783 3.9 -27.5°
